North Myrtle Beach, SC

2:55 AM EDT on June 29, 2017 (GMT -0400)
Grand Strand

Weather History for KCRE - December, 2012

Change the Weather History Date:

Wednesday, December 19, 2012

  Actual Average Record
Temperature  
Mean Temperature 55 °F 48 °F  
Max Temperature 67 °F 58 °F 74 °F (2006)
Min Temperature 43 °F 38 °F 16 °F (1953)
Degree Days  
Heating Degree Days 10 17  
Month to date heating degree days 141 289  
Since 1 July heating degree days 639 650  
Cooling Degree Days 0 0  
Month to date cooling degree days 0 0  
Year to date cooling degree days 2096 1899  
Growing Degree Days 5 (Base 50)    
Moisture  
Dew Point 39 °F    
Average Humidity 65    
Maximum Humidity 100    
Minimum Humidity 29    
Precipitation  
Precipitation 0.00 in 0.12 in 1.50 in (1999)
Month to date precipitation 1.04 2.26  
Year to date precipitation 36.60 50.81  
Sea Level Pressure  
Sea Level Pressure 30.05 in    
Wind  
Wind Speed 4 mph (West)    
Max Wind Speed 12 mph    
Max Gust Speed 16 mph    
Visibility 10 miles    
Events      
T = Trace of Precipitation, MM = Missing Value Source: NWS Daily Summary

Daily Weather History Graph

Daily Weather History Graph

Search for Another Location

Airport or City:

Trip Planner

Search our weather history database for the weather conditions in past years. The results will help you decide how hot, cold, wet, or windy it might be!

Date:

Astronomy

Dec. 19, 2012 Rise Set
Actual Time 7:15 AM EST 5:09 PM EST
Civil Twilight 6:47 AM EST 5:37 PM EST
Nautical Twilight 6:16 AM EST 6:08 PM EST
Astronomical Twilight 5:45 AM EST 6:38 PM EST
Moon 11:41 AM EST (12/19) No Moon Set
Length of Visible Light 10h 49m
Length of Day
9h 54m
Waxing Crescent, 45% of the Moon is Illuminated
Dec 19
Waxing Crescent
Dec 20
First Quarter
Dec 28
Full
Jan 4
Last Quarter
Jan 11
New

Hourly Weather History & Observations

Time (EST) Temp. Windchill Dew Point Humidity Pressure Visibility Wind Dir Wind Speed Gust Speed Precip Events Conditions
12:53 AM 45.0 °F 42.6 °F 37.0 °F 74% 29.96 in 10.0 mi West 4.6 mph - N/A   Clear
1:53 AM 45.0 °F 43.5 °F 36.0 °F 71% 29.99 in 10.0 mi West 3.5 mph - N/A   Clear
2:53 AM 45.0 °F - 36.0 °F 71% 29.98 in 10.0 mi Calm Calm - N/A   Clear
3:53 AM 46.0 °F 43.9 °F 35.1 °F 66% 29.98 in 10.0 mi West 4.6 mph - N/A   Clear
4:53 AM 46.0 °F 43.1 °F 34.0 °F 63% 30.00 in 10.0 mi West 5.8 mph - N/A   Clear
5:53 AM 45.0 °F 41.8 °F 34.0 °F 65% 30.01 in 10.0 mi West 5.8 mph - N/A   Clear
6:53 AM 44.1 °F 40.1 °F 33.1 °F 65% 30.03 in 10.0 mi West 6.9 mph - N/A   Clear
7:53 AM 45.0 °F 41.8 °F 33.1 °F 63% 30.05 in 10.0 mi West 5.8 mph - N/A   Clear
8:53 AM 50.0 °F - 34.0 °F 54% 30.08 in 10.0 mi West 8.1 mph - N/A   Clear
9:53 AM 57.9 °F - 35.1 °F 42% 30.09 in 10.0 mi WNW 8.1 mph - N/A   Clear
10:53 AM 61.0 °F - 35.1 °F 38% 30.08 in 10.0 mi WNW 8.1 mph - N/A   Clear
11:53 AM 63.0 °F - 35.1 °F 35% 30.07 in 10.0 mi NW 8.1 mph - N/A   Clear
12:53 PM 64.9 °F - 34.0 °F 32% 30.04 in 10.0 mi Variable 5.8 mph - N/A   Clear
1:53 PM 66.9 °F - 34.0 °F 30% 30.03 in 10.0 mi Variable 3.5 mph - N/A   Clear
2:53 PM 64.0 °F - 42.1 °F 45% 30.03 in 10.0 mi South 6.9 mph - N/A   Clear
3:53 PM 62.1 °F - 46.9 °F 58% 30.04 in 10.0 mi SSW 6.9 mph - N/A   Clear
4:53 PM 59.0 °F - 46.9 °F 64% 30.06 in 10.0 mi SSW 5.8 mph - N/A   Clear
5:53 PM 55.0 °F - 48.9 °F 80% 30.06 in 10.0 mi SW 4.6 mph - N/A   Clear
6:53 PM 52.0 °F - 48.9 °F 89% 30.08 in 10.0 mi Calm Calm - N/A   Clear
7:53 PM 50.0 °F - 48.0 °F 93% 30.10 in 10.0 mi Calm Calm - N/A   Clear
8:53 PM 48.0 °F - 46.0 °F 93% 30.10 in 10.0 mi Calm Calm - N/A   Clear
9:53 PM 45.0 °F - 44.1 °F 97% 30.12 in 10.0 mi Calm Calm - N/A   Clear
10:53 PM 44.1 °F - 44.1 °F 100% 30.12 in 5.0 mi Calm Calm - N/A   Clear
11:53 PM 44.1 °F - 43.0 °F 96% 30.13 in 9.0 mi Calm Calm - N/A   Clear